Find Beidou DW 2

NORAD ID: 34779 Int'l Des: 2009-018 Owner: CNSA Country: CN Constellation: BeiDou operational
HEO

現在のビュー

3D地球を読み込み中...

About Beidou DW 2

Beidou DW 2 (NORAD 34779) is a BeiDou constellation satellite launched Apr 14, 2009 by CNSA of CN. It operates in HEO orbit with a mass of 3060.00 kg.

Beidou DW 2について

説明を読み込み中...

次回通過

Passes for default location (London). Set your location on the main map for personalized predictions.

高度履歴

Loading altitude history...

軌道要素

1 34779U 09018A 26194.88267552 -.00000141 00000-0 00000+0 0 9999
2 34779 11.4951 41.9763 0305175 285.9130 12.7088 0.94516161 62403
Epoch: Jul 13, 2026 • Age: 9 hours

現在のステータス

高度 38519.8 km
遠地点 / 近地点 N/A
速度 2.94 km/s
衛星直下点 10.63°N, 85.16°E
打ち上げ日 Apr 14, 2009
運用期間 17.2 years
タイプ navigation

技術仕様

分類 Payload
質量 3060.00 kg
乾燥質量 1700.00 kg
総質量 3060.00 kg
長さ 3.00 m
直径 1.70 m
スパン 18.00 m
形状 Box + 2 Pan
製造者 CAST
バスタイプ DFH-3B
フェーズステータス In Orbit
所有者/国 CNSA/CN

Most Searched